Погода в Улаангоме

Монголия     49°59′16″N   92°04′21″E
темп.,
°C
ветер,
м/с
пор.,
м/с
влажн.,
%
обл.,
%
осадки,
мм/ч
давл.,
гПа
погр.,
м
9 мая, вс
вс923:00+14ссв33300 0.0 101440
02:00+12зсз22363 0.0 101515
05:00+9зюз01425 0.0 101410
08:00+12с11360 0.0 101571
11:00+14вюв22290 0.0 10141060
14:00+18в44220 0.0 10101585
17:00+20в35151 0.0 10071828
20:00+18всв32204 0.0 1007381
10 мая, пн
пн1023:00+14с112873 0.0 100811
02:00+12юв3435100 0.0 1008123
05:00+12юв2238100 0.0 100862
08:00+12св353788 0.0 1009952
11:00+9св555698 0.0 10131228
14:00+9всв3449100 0.3 10141517
17:00+10ссв154497 0.1 10131781
20:00+11в65315 0.1 1013865
11 мая, вт
вт1123:00+7юв23345 0.0 101696
02:00+6ююз113573 0.0 101510
05:00+4ююз113814 0.0 101410
08:00+6с113446 0.0 1014132
11:00+9всв223078 0.0 10131133
14:00+12всв432899 0.0 10111699
17:00+13св322736 0.0 10101504
20:00+12св21277 0.0 10091002
12 мая, ср
ср1223:00+9всв113467 0.0 100914
02:00+9ююз0135100 0.0 100910
05:00+8ссз2235100 0.0 100728
08:00+7сз7863100 0.1 1009497
11:00+10с344978 0.0 10081337
14:00+12с5643100 0.1 10071583
17:00+13ссз91035100 0.4 10071916
20:00+12с810357 0.4 10081621
13 мая, чт
чт1323:00+10сз71246100 0.0 1011600
02:00+8з355591 0.1 1013113
05:00+8з2248100 0.0 101334
08:00+9ссз254295 0.0 1014514
11:00+12ссз672895 0.0 10132341
14:00+14с882296 0.0 10123149
17:00+11всв1341100 0.3 10131124
20:00+11ссз234141 0.4 1014620